Date,TemperatureHighF,TemperatureAvgF,TemperatureLowF,DewpointHighF,DewpointAvgF,DewpointLowF,HumidityHigh,HumidityAvg,HumidityLow,PressureMaxIn,PressureMinIn,WindSpeedMaxMPH,WindSpeedAvgMPH,GustSpeedMaxMPH,PrecipitationSumIn
2013-4-1,28.2,25.3,22.3,20.0,16.4,11.0,86,69,55,30.12,29.80,24,12,27,0.00
2013-4-2,31.2,26.4,19.0,20.0,15.4,11.0,80,64,46,30.30,30.09,15,6,20,0.00
2013-4-3,32.3,27.6,24.6,22.0,17.3,14.0,76,65,53,30.48,30.29,19,6,22,0.00
2013-4-4,46.8,33.9,25.1,35.0,21.7,9.0,93,63,41,30.32,29.95,14,2,19,0.01
2013-4-5,35.6,30.6,26.1,28.0,21.4,17.0,78,69,56,30.26,30.05,16,7,21,0.00
2013-4-6,47.6,34.5,25.7,32.0,24.4,17.0,85,67,52,30.24,29.59,16,1,18,0.03
2013-4-7,47.7,36.8,27.3,45.0,31.7,25.0,93,82,53,30.06,29.45,15,5,24,0.15
2013-4-8,41.1,34.0,26.8,38.0,31.1,25.0,95,89,74,30.05,29.77,4,0,10,0.30
2013-4-9,41.3,35.1,32.4,38.0,33.7,31.0,96,94,88,30.12,30.02,10,1,10,0.39
2013-4-10,39.1,34.6,31.4,35.0,31.6,30.0,96,89,76,30.15,30.06,9,2,12,0.65
2013-4-11,35.9,32.9,29.8,31.0,26.3,23.0,92,78,60,30.10,29.78,6,1,10,0.18
2013-4-12,36.5,32.0,29.9,34.0,29.8,27.0,95,91,88,29.78,29.62,3,1,7,0.15
2013-4-13,35.2,32.8,30.6,33.0,29.0,25.0,94,86,68,29.94,29.72,12,3,16,0.26
2013-4-14,45.4,35.2,22.9,30.0,27.6,21.0,95,76,47,30.10,29.90,6,1,9,0.19
2013-4-15,54.1,44.8,36.8,52.0,40.2,29.0,96,84,71,29.90,29.75,10,1,12,0.13
2013-4-16,43.7,38.5,31.9,40.0,30.6,28.0,95,74,58,30.34,29.89,13,3,17,0.00
2013-4-17,49.5,36.1,25.7,37.0,30.5,24.0,95,82,51,30.42,30.07,3,0,9,0.11
2013-4-18,53.9,41.6,35.9,53.0,40.0,34.0,97,94,88,30.06,29.36,4,0,11,0.77
2013-4-19,55.4,38.3,28.2,55.0,31.6,17.0,97,77,59,29.72,29.26,17,5,25,0.04
2013-4-20,30.9,27.1,23.5,22.0,18.8,16.0,87,71,55,30.48,29.73,18,8,23,0.00
2013-4-21,48.7,34.7,17.9,28.0,18.4,13.0,88,57,25,30.63,30.39,7,1,10,0.00
2013-4-22,66.8,45.5,34.9,34.0,29.8,27.0,80,57,29,30.38,30.12,13,2,17,0.00
2013-4-23,60.2,44.2,32.5,47.0,35.6,30.0,95,74,56,30.12,29.84,13,4,16,0.35
2013-4-24,44.3,36.1,33.4,31.0,27.5,22.0,89,73,43,30.00,29.90,15,8,18,0.00
2013-4-25,45.9,38.8,34.7,35.0,29.0,25.0,88,69,48,30.28,29.92,11,4,19,0.01
2013-4-26,64.6,48.2,32.9,41.0,32.4,27.0,81,58,31,30.35,30.13,7,1,15,0.00
2013-4-27,69.8,56.5,44.6,47.0,43.3,37.0,87,64,31,30.21,30.05,4,1,10,0.05
2013-4-28,61.5,48.7,37.4,47.0,39.5,36.0,94,72,45,30.07,29.80,12,0,12,0.00
2013-4-29,64.5,51.7,44.1,55.0,48.5,42.0,96,89,65,29.87,29.81,3,0,9,0.05
2013-4-30,76.2,63.1,50.8,60.0,56.1,49.0,95,79,56,29.90,29.75,14,1,25,0.34